Temp
11 11 12 12 12 11 12 12 12 11 12 12 12 12 12 12 13 13 14 15 15 14 14 13 13 13 13 12 13 12 8 7 11 12 13 16 15 16 17 17 17 18 18 19 19
11 11 11 11 11 11 11 11 11 11 11 11 11 12 12 12 13 14 14 14 14 13 13 13 13 12 12 12 13 10 6 9 10 13 14 15 14 15 16 16 16 17 19 19 19
10 10 10 10 11 11 11 11 10 11 11 10 11 12 11 11 12 14 14 14 14 13 13 12 12 12 11 11 12 10 8 10 13 14 14 14 14 15 15 13 16 17 18 18 19
10 10 10 10 10 10 10 11 10 10 10 10 10 10 11 10 11 14 14 13 13 13 13 12 11 11 10 9 12 10 11 12 13 15 15 12 15 14 15 15 17 18 18 18 19
10 10 10 10 10 10 9 9 9 9 9 9 9 9 9 9 12 14 13 13 13 12 13 12 11 11 10 10 11 10 11 13 14 14 14 14 12 13 15 17 17 18 18 18 18
9 10 10 10 10 9 7 7 7 7 8 8 8 9 7 6 13 13 13 12 13 13 13 12 12 12 12 11 11 13 12 13 14 14 13 13 13 13 16 17 17 17 17 18 18
8 9 9 9 9 8 6 6 6 6 6 7 6 6 5 9 13 13 13 13 12 12 12 12 12 12 12 12 13 13 11 11 12 13 12 14 12 12 16 16 16 17 17 17 17
8 8 7 8 8 7 6 7 5 4 5 6 5 3 3 11 12 13 12 12 12 12 12 12 11 12 12 13 12 12 11 11 12 12 14 14 12 13 16 15 15 16 17 17 17
7 8 7 8 6 6 6 7 4 5 3 4 3 3 4 9 9 12 12 11 12 12 12 12 11 12 12 10 9 9 9 10 11 12 12 12 11 13 16 14 14 15 16 16 16
7 7 7 7 6 6 5 6 3 3 2 3 3 3 8 11 11 12 12 12 11 11 11 10 11 8 7 8 8 8 9 9 10 11 11 9 10 11 13 13 13 15 14 13 13
7 8 7 7 6 5 4 4 2 2 2 4 5 6 9 9 11 11 12 11 10 11 8 10 7 7 10 8 10 10 9 9 8 9 10 10 10 10 12 12 11 11 11 11 11
7 8 7 6 5 4 4 2 3 2 1 3 5 5 8 8 8 12 11 11 10 9 9 8 7 10 9 9 9 9 8 8 9 9 9 9 10 11 10 11 11 10 10 10 10
7 7 7 4 3 2 3 4 3 2 2 4 7 7 6 7 8 10 11 12 10 9 8 8 10 10 10 9 9 8 8 9 9 10 10 10 9 12 12 10 10 10 10 10 8
7 6 4 3 2 2 1 3 3 3 2 5 6 7 7 8 8 11 12 12 10 9 8 8 10 10 9 9 9 8 9 10 10 9 9 11 8 12 10 11 9 10 10 8 7
3 2 2 1 1 0 1 4 4 3 2 9 7 9 8 8 11 10 12 12 9 9 9 9 10 9 9 10 10 9 11 10 10 9 8 10 8 8 9 10 10 9 9 8 7
1 1 1 0 0 -0 1 3 4 3 3 9 9 8 7 9 11 10 11 12 12 10 10 9 11 11 10 11 10 12 12 10 8 8 8 9 8 7 10 10 9 9 8 8 6
0 0 1 0 -0 0 1 2 3 2 8 10 9 9 9 10 11 11 10 9 8 8 8 10 11 12 12 11 11 11 10 9 8 7 8 9 8 9 9 9 8 8 7 5 4
-0 0 0 -1 -0 1 2 2 3 6 7 10 10 10 10 11 11 11 8 7 7 9 8 9 9 9 10 10 10 10 9 8 9 8 8 10 8 9 9 10 9 7 5 4 3
-0 -0 0 -0 0 1 2 2 4 7 7 7 10 10 9 10 10 9 8 7 7 7 9 8 8 9 9 9 9 10 8 9 9 8 8 9 9 10 9 9 7 5 4 2 1
-1 -1 0 1 1 1 1 3 5 6 6 7 5 6 8 8 9 8 7 7 7 7 8 7 8 7 8 9 8 8 8 7 5 7 8 8 9 8 8 8 5 4 2 1 -0
0 0 0 1 1 0 1 3 7 6 7 6 6 6 7 7 7 7 6 6 7 7 6 6 7 7 8 7 6 6 6 6 6 6 7 6 5 6 5 4 4 3 2 0 -1
0 -1 0 0 1 2 1 5 7 6 6 6 5 6 6 6 6 6 5 6 6 7 6 5 5 5 6 6 6 6 5 6 4 5 5 5 6 6 4 3 3 2 1 -1 -2
1 -0 -0 0 1 1 4 5 5 6 5 5 5 6 5 5 5 6 5 5 6 6 5 5 3 4 5 6 6 5 5 5 4 3 3 3 6 5 5 3 2 1 -0 -1 -2
1 -3 -0 -0 1 1 4 4 5 5 5 5 5 5 5 5 4 4 4 4 5 5 5 5 3 4 4 5 3 4 4 4 2 -3 0 4 5 6 5 3 2 0 -1 -1 -2
1 -1 2 -2 -0 2 4 5 5 4 5 5 4 4 4 4 3 3 3 3 4 4 3 3 3 3 3 3 3 3 3 3 2 3 1 4 4 6 5 3 1 -1 -1 -2 -3
1 1 2 2 3 3 3 4 5 4 5 4 3 4 4 3 3 2 3 3 3 2 2 1 1 2 2 3 2 3 3 2 3 3 3 4 4 5 2 1 -1 -2 -2 -3 -4
2 2 2 1 2 3 3 4 4 4 4 4 4 3 2 3 3 4 4 4 3 2 2 1 -1 -0 1 3 3 3 3 3 3 4 4 3 4 3 0 -1 -2 -3 -3 -4 -4
Height
1500 1499 1499 1499 1499 1499 1497 1496 1494 1492 1490 1488 1486 1485 1484 1482 1480 1477 1473 1473 1471 1472 1474 1476 1477 1478 1480 1483 1485 1487 1496 1501 1489 1486 1479 1475 1475 1475 1476 1474 1473 1473 1473 1471 1469
1495 1495 1495 1494 1494 1494 1495 1493 1492 1489 1488 1485 1484 1482 1483 1480 1476 1473 1469 1467 1466 1468 1472 1473 1475 1477 1479 1481 1483 1485 1495 1488 1479 1476 1476 1475 1475 1473 1475 1473 1471 1467 1468 1468 1468
1489 1489 1488 1489 1490 1489 1490 1489 1489 1487 1484 1483 1481 1479 1480 1479 1475 1470 1468 1466 1466 1468 1470 1473 1474 1476 1479 1480 1479 1479 1482 1477 1473 1473 1473 1473 1472 1472 1471 1471 1469 1465 1462 1463 1464
1482 1484 1484 1483 1484 1484 1485 1484 1483 1483 1481 1479 1477 1477 1477 1479 1480 1469 1468 1466 1465 1467 1469 1470 1473 1475 1476 1477 1475 1479 1473 1472 1469 1469 1470 1469 1469 1467 1468 1464 1464 1463 1461 1461 1461
1474 1476 1477 1478 1479 1477 1478 1479 1478 1478 1477 1474 1473 1474 1474 1474 1466 1467 1468 1465 1463 1464 1466 1468 1470 1472 1474 1472 1472 1473 1470 1468 1466 1467 1464 1463 1464 1464 1461 1459 1460 1458 1458 1456 1458
1466 1468 1469 1471 1470 1470 1471 1472 1473 1473 1472 1471 1469 1469 1470 1469 1459 1459 1460 1459 1459 1460 1461 1464 1468 1469 1469 1469 1470 1466 1466 1464 1462 1461 1460 1459 1458 1460 1457 1456 1455 1454 1453 1452 1452
1455 1459 1462 1462 1463 1463 1465 1467 1466 1467 1469 1467 1465 1465 1460 1454 1453 1455 1455 1458 1456 1456 1458 1460 1464 1468 1467 1466 1465 1464 1465 1462 1458 1455 1456 1454 1457 1456 1451 1451 1451 1450 1449 1447 1447
1448 1450 1454 1456 1456 1458 1459 1459 1462 1462 1464 1464 1463 1461 1447 1446 1446 1444 1448 1453 1455 1454 1455 1459 1462 1464 1465 1464 1464 1464 1465 1466 1456 1454 1451 1453 1457 1448 1447 1448 1447 1446 1444 1442 1441
1438 1442 1443 1448 1450 1452 1455 1455 1457 1455 1461 1461 1462 1459 1442 1439 1437 1435 1438 1445 1452 1452 1454 1456 1459 1460 1461 1464 1471 1469 1471 1466 1461 1453 1452 1453 1455 1448 1445 1443 1442 1441 1438 1437 1435
1431 1435 1437 1440 1445 1447 1450 1452 1454 1453 1460 1457 1461 1462 1439 1435 1435 1432 1430 1441 1447 1451 1451 1454 1455 1458 1462 1463 1468 1469 1470 1468 1465 1454 1452 1452 1448 1444 1441 1439 1435 1433 1433 1432 1430
1422 1427 1431 1435 1439 1443 1447 1449 1455 1455 1453 1446 1445 1438 1433 1431 1433 1433 1428 1436 1444 1447 1449 1446 1453 1455 1447 1456 1455 1459 1463 1466 1463 1452 1452 1447 1441 1440 1434 1433 1431 1431 1429 1429 1429
1415 1417 1423 1428 1432 1437 1441 1446 1443 1445 1446 1441 1434 1433 1433 1435 1434 1430 1431 1434 1440 1442 1446 1450 1448 1441 1447 1453 1456 1459 1463 1465 1457 1448 1454 1448 1434 1433 1429 1427 1428 1429 1429 1429 1427
1412 1414 1418 1422 1428 1431 1435 1440 1444 1444 1450 1429 1417 1417 1422 1431 1429 1425 1428 1428 1434 1437 1441 1446 1438 1436 1443 1449 1454 1456 1459 1458 1456 1449 1448 1447 1439 1426 1423 1424 1427 1428 1428 1427 1425
1406 1409 1414 1418 1428 1429 1433 1437 1443 1446 1448 1422 1415 1403 1408 1421 1420 1418 1422 1427 1431 1434 1438 1441 1435 1437 1443 1444 1448 1454 1446 1447 1449 1455 1459 1445 1451 1424 1425 1425 1426 1425 1424 1424 1423
1402 1404 1410 1415 1421 1428 1432 1436 1443 1445 1455 1403 1405 1399 1401 1406 1403 1408 1415 1420 1427 1429 1434 1434 1431 1434 1437 1437 1438 1443 1436 1442 1445 1451 1455 1449 1455 1435 1426 1426 1425 1424 1425 1426 1425
1400 1406 1409 1414 1419 1427 1432 1439 1441 1447 1442 1400 1395 1399 1405 1404 1399 1404 1412 1417 1420 1426 1427 1429 1426 1427 1428 1427 1430 1430 1434 1439 1447 1450 1455 1441 1448 1436 1426 1424 1425 1425 1427 1428 1425
1408 1405 1412 1415 1422 1429 1434 1438 1442 1444 1407 1397 1396 1397 1399 1401 1399 1400 1409 1419 1424 1431 1433 1426 1424 1423 1424 1427 1428 1431 1439 1450 1453 1454 1447 1440 1446 1430 1421 1420 1423 1425 1428 1427 1422
1407 1409 1410 1415 1422 1429 1432 1436 1435 1412 1405 1396 1392 1395 1397 1396 1401 1401 1410 1422 1424 1423 1428 1428 1432 1427 1426 1427 1430 1432 1435 1446 1445 1445 1443 1430 1437 1426 1417 1419 1422 1425 1425 1424 1420
1410 1412 1414 1419 1424 1429 1432 1433 1423 1409 1407 1404 1394 1397 1399 1398 1400 1406 1417 1424 1427 1425 1424 1430 1431 1431 1430 1429 1431 1431 1438 1436 1439 1438 1440 1431 1425 1417 1417 1420 1425 1426 1424 1422 1419
1410 1413 1416 1420 1425 1428 1432 1424 1417 1411 1409 1407 1417 1414 1403 1405 1403 1407 1420 1426 1426 1426 1423 1431 1431 1434 1432 1432 1432 1433 1436 1446 1450 1443 1436 1430 1427 1429 1424 1426 1428 1427 1427 1422 1420
1412 1415 1418 1421 1425 1428 1427 1422 1413 1413 1410 1413 1413 1413 1408 1408 1408 1415 1425 1428 1425 1427 1426 1431 1434 1438 1432 1437 1441 1443 1442 1445 1448 1449 1443 1442 1443 1434 1434 1432 1430 1432 1430 1425 1421
1412 1416 1419 1423 1428 1425 1423 1416 1413 1412 1411 1415 1417 1414 1413 1413 1415 1420 1426 1426 1427 1429 1433 1436 1441 1447 1442 1441 1439 1441 1446 1446 1454 1450 1453 1449 1440 1433 1432 1432 1432 1433 1433 1428 1424
1411 1416 1420 1423 1422 1421 1415 1413 1413 1414 1416 1417 1417 1417 1415 1418 1421 1420 1428 1432 1429 1431 1434 1436 1446 1449 1448 1445 1443 1446 1448 1451 1454 1458 1460 1459 1432 1429 1430 1431 1431 1433 1432 1429 1427
1410 1418 1422 1423 1419 1417 1413 1415 1417 1416 1417 1417 1418 1418 1419 1421 1423 1427 1431 1434 1432 1432 1433 1434 1442 1441 1449 1446 1451 1450 1450 1451 1458 1483 1464 1445 1436 1428 1428 1432 1432 1435 1435 1423 1429
1407 1407 1407 1419 1416 1413 1410 1409 1412 1415 1416 1417 1420 1420 1421 1426 1428 1433 1434 1434 1434 1435 1436 1437 1443 1445 1446 1448 1450 1450 1449 1448 1453 1449 1460 1434 1433 1427 1426 1432 1435 1437 1435 1428 1430
1403 1403 1404 1406 1405 1409 1410 1410 1410 1415 1417 1419 1422 1423 1423 1427 1429 1433 1434 1436 1436 1437 1439 1442 1448 1448 1449 1446 1447 1445 1443 1444 1444 1441 1438 1431 1427 1426 1429 1432 1435 1436 1435 1433 1431
1401 1402 1404 1406 1406 1408 1409 1410 1414 1416 1421 1419 1422 1425 1428 1430 1431 1432 1432 1433 1436 1439 1442 1445 1452 1454 1451 1444 1442 1437 1430 1434 1436 1432 1426 1425 1419 1424 1432 1433 1435 1436 1435 1434 1433
Wind_Speed
27 26 26 24 24 23 23 24 24 25 24 25 25 25 24 26 28 28 30 22 21 15 11 11 7 7 6 7 6 4 1 3 5 6 4 2 2 2 9 11 11 12 23 28 24
31 29 29 27 26 26 26 25 25 26 26 25 26 25 24 25 29 33 8 6 7 7 9 11 10 8 4 4 6 5 4 9 7 4 3 5 5 18 3 9 18 30 28 26 24
34 33 31 30 29 28 28 27 27 27 27 27 26 26 23 23 25 3 2 5 7 3 6 8 8 7 5 6 7 6 6 5 5 9 8 4 13 14 4 6 14 27 29 24 22
35 35 34 33 33 30 30 29 27 28 27 26 25 25 21 17 6 3 6 5 1 2 5 7 7 6 4 6 11 4 9 12 9 20 18 6 14 9 14 21 24 21 21 22 21
39 38 36 37 36 35 30 30 27 27 27 25 24 23 20 8 24 22 19 18 17 14 8 8 10 7 5 5 5 5 5 15 21 19 22 21 12 12 17 23 19 18 23 24 22
42 42 38 40 38 36 31 30 26 25 25 23 22 22 17 7 19 12 10 18 22 12 10 12 6 8 5 5 5 3 7 11 10 15 11 7 7 5 10 19 20 17 17 19 22
40 39 39 42 42 34 33 29 27 24 22 21 18 18 20 31 21 12 16 15 12 11 11 8 13 5 1 4 5 6 5 6 7 7 6 2 3 6 15 10 11 19 22 26 27
41 37 40 41 39 36 33 33 29 20 18 18 15 12 16 21 20 25 29 19 19 15 11 9 8 12 6 8 5 2 1 2 4 1 6 5 5 10 10 12 25 20 25 27 28
38 37 41 41 38 38 33 29 27 25 15 12 9 9 17 17 22 21 27 32 20 19 13 14 8 10 4 3 4 3 4 3 6 4 4 3 2 5 24 22 17 23 25 29 30
37 37 43 42 38 37 31 23 19 13 10 5 8 8 16 11 6 5 11 21 21 21 19 11 8 4 2 4 7 4 3 3 4 5 2 8 10 8 17 13 19 23 24 18 19
34 40 42 40 38 32 23 15 8 4 15 15 9 9 6 7 6 8 10 19 18 12 7 9 4 7 18 5 4 2 3 5 5 9 4 10 14 10 14 11 13 11 10 14 20
35 43 34 42 35 29 22 12 7 3 8 29 36 34 37 14 7 12 11 13 11 6 4 2 8 13 6 5 5 5 4 6 6 7 5 10 18 10 8 5 3 5 9 14 22
34 41 43 35 26 23 22 21 8 4 5 15 27 30 33 28 17 15 15 14 5 7 8 7 6 9 7 4 5 5 5 5 7 5 5 5 9 2 3 4 2 5 12 16 21
43 43 37 29 21 17 17 7 10 5 4 7 9 11 23 14 10 40 16 16 4 11 7 6 8 7 5 6 8 4 9 9 7 3 4 2 7 2 3 4 2 10 17 17 28
38 34 27 24 11 15 8 14 14 7 3 4 6 3 16 21 10 19 29 14 9 7 7 7 5 6 4 10 7 8 7 7 5 5 4 3 1 4 3 3 3 7 14 20 26
27 24 22 17 14 13 15 18 12 3 8 4 8 7 8 13 5 10 14 9 6 5 2 7 1 4 7 6 7 3 2 2 3 2 2 9 7 4 2 4 2 3 7 14 21
10 12 13 15 16 15 20 19 4 5 7 2 3 6 7 7 3 5 10 3 5 5 4 2 4 1 2 3 1 3 4 2 2 1 4 5 3 7 4 4 3 3 4 13 20
8 10 11 16 15 17 20 1 7 5 8 4 1 9 5 4 1 4 7 4 6 2 3 5 2 4 5 2 2 4 6 4 5 3 4 3 5 5 4 3 1 5 11 17 24
9 11 11 17 18 19 15 5 5 2 5 8 6 10 2 3 5 5 4 3 3 4 3 3 2 3 5 3 1 3 3 2 2 1 2 3 5 5 3 4 7 10 16 19 22
10 10 14 18 19 18 4 4 6 3 5 5 3 7 0 3 3 4 3 3 3 5 1 1 2 3 2 1 6 5 2 2 3 2 5 2 2 3 6 6 5 9 13 20 24
15 8 14 17 13 10 3 4 3 3 5 5 3 4 4 2 4 3 4 4 4 3 7 2 2 3 2 3 1 4 2 4 2 2 3 2 4 5 4 4 6 8 14 17 23
10 3 19 20 5 4 3 5 2 3 9 5 3 4 4 5 4 4 4 4 7 1 3 1 3 2 2 7 2 1 4 4 3 2 2 2 4 1 4 8 10 10 14 17 22
8 7 14 23 3 3 3 2 4 1 3 3 5 4 4 2 4 6 5 3 7 3 4 3 1 3 2 2 3 4 4 4 0 2 5 2 4 3 7 8 10 9 10 17 21
5 3 5 13 8 3 4 5 6 4 3 4 3 3 3 5 7 4 4 4 8 4 8 4 2 3 3 2 2 1 3 2 4 2 3 10 14 19 6 7 8 8 9 12 18
6 4 8 4 5 5 2 2 4 3 2 4 4 3 3 3 2 3 3 3 4 5 4 3 2 2 4 1 2 4 9 10 7 10 5 16 14 12 2 2 8 8 10 13 16
4 3 5 2 7 5 1 2 6 4 2 2 5 4 5 4 3 3 3 2 1 5 3 4 2 2 2 6 7 8 11 10 13 14 16 19 21 6 8 10 10 10 11 14 16
4 3 3 1 3 4 3 4 4 6 8 7 9 5 7 3 2 3 5 4 3 4 2 1 3 2 2 0 4 6 1 0 6 9 12 15 15 9 6 8 7 8 10 13 15
Wind_Direction
284 286 288 291 293 296 299 299 301 304 305 306 308 310 311 312 314 311 310 299 288 275 247 230 208 197 191 197 185 172 69 230 229 173 235 247 26 252 305 287 300 299 301 307 323
279 281 284 285 287 289 292 292 293 297 299 300 302 303 308 310 315 314 319 359 267 239 205 216 202 202 172 183 192 163 164 216 215 215 254 292 307 295 291 295 299 304 312 312 311
278 278 277 280 282 284 286 287 290 291 292 296 296 296 305 311 321 264 148 67 57 110 189 210 209 199 197 185 200 193 211 220 235 244 260 251 282 287 247 267 278 293 307 315 313
274 276 278 279 279 278 279 280 284 286 287 290 292 292 295 306 290 249 228 239 351 327 243 215 195 170 191 200 215 225 239 240 261 256 262 227 271 276 267 272 291 296 303 307 307
270 272 273 276 274 274 271 272 276 279 283 287 289 288 293 267 258 270 263 261 261 283 249 230 194 181 190 203 209 227 244 256 262 273 270 272 244 246 275 286 295 289 291 294 296
264 266 273 275 274 273 267 266 271 276 279 283 285 283 281 229 276 262 262 260 251 229 222 204 216 216 256 236 184 232 226 256 269 263 260 239 250 191 249 290 289 298 302 305 309
264 262 271 274 271 270 266 265 261 269 279 279 284 282 266 252 260 246 254 251 216 208 210 213 211 229 253 290 262 262 285 292 247 237 235 234 277 224 276 270 306 308 314 315 315
259 260 267 271 264 264 261 268 262 269 277 283 281 276 259 283 258 245 233 229 209 203 205 208 220 250 235 272 314 289 90 274 288 247 257 158 243 271 282 324 308 306 316 317 316
253 258 261 264 250 260 264 278 269 270 274 278 266 259 272 273 260 254 228 227 211 211 232 240 227 221 207 156 343 341 250 236 307 285 266 162 239 282 293 302 292 308 311 314 319
248 251 259 254 248 255 260 279 275 264 270 249 243 264 254 255 288 282 196 222 219 226 237 219 203 170 104 151 220 206 232 242 256 273 318 293 274 262 280 287 298 303 317 326 324
239 248 247 249 245 248 254 269 240 225 214 208 211 243 301 323 258 247 204 186 194 193 179 180 160 190 223 180 177 198 214 240 256 263 331 283 287 272 283 286 290 326 359 345 338
240 248 242 247 232 238 245 227 154 179 289 243 248 251 256 287 313 225 197 154 182 181 141 67 231 214 153 182 208 222 251 266 271 266 163 282 284 275 258 246 113 57 7 356 340
237 234 236 215 209 222 237 233 166 48 261 265 243 236 236 237 234 246 199 190 162 164 182 179 239 163 163 172 189 209 197 243 224 341 273 295 288 229 269 93 63 21 344 341 344
232 221 205 196 199 216 231 191 166 147 328 265 206 242 202 196 237 234 232 198 197 197 156 223 243 239 168 203 176 236 209 229 254 160 233 105 291 245 110 204 358 321 344 350 342
183 180 182 186 174 179 165 152 148 150 345 207 188 225 176 174 157 204 209 185 177 184 155 230 192 193 171 218 148 224 240 229 214 196 137 234 216 246 71 11 290 341 6 346 337
162 165 176 183 149 133 140 148 145 95 249 270 142 167 157 201 200 126 169 196 188 156 186 219 167 161 195 209 184 181 156 88 66 149 239 200 175 280 271 189 293 16 350 335 330
173 180 186 185 146 147 161 147 141 196 309 262 185 153 173 175 155 132 157 86 165 130 191 221 241 215 78 156 82 125 103 278 317 344 226 167 199 258 241 253 230 279 315 347 344
196 191 148 142 153 151 157 265 220 205 254 335 228 149 175 125 349 118 110 130 32 88 122 167 140 15 349 83 157 183 170 169 232 208 248 154 237 249 213 207 215 62 4 355 353
157 132 156 151 176 162 150 191 207 300 339 348 2 158 114 62 115 95 69 92 60 17 145 131 103 348 32 352 352 161 149 201 261 122 278 216 298 315 214 278 90 30 2 354 348
162 181 170 164 166 166 204 221 235 9 356 2 42 294 95 47 97 72 89 3 101 36 42 103 82 82 292 230 18 72 343 69 11 210 239 260 242 246 350 10 46 15 351 351 348
155 137 175 173 173 172 196 245 276 348 69 11 74 310 53 79 63 71 51 24 33 34 58 70 82 316 335 59 55 351 65 75 116 229 262 289 256 330 4 20 52 16 359 354 351
168 102 162 172 166 206 212 223 70 342 49 39 90 12 30 32 58 83 105 48 354 80 76 58 112 129 258 326 268 95 70 54 134 142 278 306 262 186 103 66 56 31 2 354 355
130 102 162 178 194 215 269 39 36 57 16 96 357 28 40 59 111 81 85 351 44 95 148 162 131 123 91 357 34 80 75 86 298 153 223 215 247 160 97 80 61 37 27 2 349
167 106 149 209 266 241 186 174 161 87 78 70 100 114 69 31 30 108 98 26 15 70 65 82 127 133 184 129 100 312 308 252 169 138 230 241 293 302 3 12 39 22 9 46 354
201 199 172 188 245 239 159 151 103 123 94 56 51 74 122 108 77 95 68 31 28 19 45 75 127 154 229 171 168 217 262 268 224 243 223 272 252 263 291 23 53 31 15 31 5
214 164 154 206 152 138 280 153 128 98 54 57 108 83 87 99 47 147 131 169 178 19 64 10 103 83 276 241 235 257 246 232 238 255 253 255 263 281 107 109 69 46 26 23 16
210 191 204 309 120 118 176 136 137 126 42 79 129 96 79 129 162 199 208 191 169 138 89 56 117 80 260 99 295 275 260 124 301 304 275 251 249 146 142 99 74 63 47 35 22